Regional Weather Roundup
Issued by NWS Mt. Holly, NJ

Home | Current Version | Previous Version | Text Only | Print | Product List | Glossary On
Versions: 1 2 3 4 5 6 7 8 9 10 11 12 13 14 15 16 17 18 19 20 21 22 23 24 25 26 27 28 29 30 31 32 33 34 35 36 37 38 39 40 41 42 43 44 45 46 47 48 49 50
000
ASUS41 KPHI 011012
RWRPHI

REGIONAL WEATHER ROUNDUP
NATIONAL WEATHER SERVICE MOUNT HOLLY NJ
600 AM EDT SAT OCT 01 2016

NOTE:  "FAIR" INDICATES FEW OR NO CLOUDS BELOW 12,000 FEET WITH NO
SIGNIFICANT WEATHER AND/OR OBSTRUCTIONS TO VISIBILITY.

 * = STATION DOES NOT REPORT PRECIPITATION (E.G. RAIN, SNOW, ETC.)
        OR FOG.

NJZ015>026-011100-
SOUTHERN NEW JERSEY

CITY           SKY/WX    TMP DP  RH WIND       PRES   REMARKS
POMONA         CLOUDY    62  61  96 NE13G22   30.15R FOG
WILDWOOD*        N/A     64  64 100 NE13G21   30.13R FOG
MILLVILLE      CLOUDY    62  62 100 NE12      30.15R FOG
WRIGHTSTOWN    CLOUDY    59  59 100 E10       30.06R
MOUNT HOLLY    CLOUDY    57  56  96 NE7       30.18R FOG
TRENTON        CLOUDY    56  54  93 NE12      30.19R

$$
NJZ001>014-011100-
NORTHERN NEW JERSEY

CITY           SKY/WX    TMP DP  RH WIND       PRES   REMARKS
SUSSEX         CLOUDY    52  51  97 NE10      30.24S FOG
ANDOVER*         N/A     52  51  97 NE8       30.23S
MORRISTOWN     CLOUDY    55  54  94 NE7       30.22S FOG
NEWARK         DRIZZLE   56  55  97 NE15      30.22R
TETERBORO      LGT RAIN  57  53  86 N9        30.22R
CALDWELL       CLOUDY    56  54  93 NE7       30.23R FOG
SOMERVILLE     CLOUDY    57  53  86 NE8       30.19S
ALLAIRE*       CLOUDY    58  58 100 NE12      30.19S FOG
TOMS RIVER*    CLOUDY    59  59 100 NE10      30.18S FOG

$$
PAZ043-044-047-054-055-060>062-066>071-011100-
EASTERN PENNSYLVANIA

CITY           SKY/WX    TMP DP  RH WIND       PRES   REMARKS
PHILADELPHIA   CLOUDY    58  56  93 NE9       30.18S
NORTH PHILA    CLOUDY    58  56  93 NE9       30.20S
BLUE BELL*     CLOUDY    54  54 100 NE7       30.18S
DOYLESTOWN     CLOUDY    56  55  97 NE10G17   30.19S
QUAKERTOWN*    CLOUDY    55  54  94 NE7       30.20S
PERKASIE*      CLOUDY    54  54 100 NE12      30.20S
POTTSTOWN      CLOUDY    55  54  96 NE9       30.20S
LANCASTER      CLOUDY    57  56  96 E10       30.17R
COATESVILLE    CLOUDY    55  54  94 NE7G17    30.18S FOG
READING        CLOUDY    55  53  93 NE6       30.18S
ALLENTOWN      CLOUDY    54  51  90 NE10      30.20F FOG
MOUNT POCONO   CLOUDY    49  48  97 E12       30.22S FOG
HAZLETON       CLOUDY    52  52 100 E6        30.21F FOG
LEHIGHTON        N/A     54  52  94 E6        30.22F
WILKES BARRE   CLOUDY    55  50  83 NE7       30.21S

$$
DEZALL-MDZ008-012-015-019-020-011100-
DELAWARE AND EASTERN MARYLAND

CITY           SKY/WX    TMP DP  RH WIND       PRES   REMARKS
WILMINGTON     CLOUDY    59  56  89 NE15      30.16S
DOVER          CLOUDY    64  64 100 NE13      30.12R
GEORGETOWN     CLOUDY    65  32  29 NE12      30.12R HAZE
EASTON         CLOUDY    64  63  94 E13       30.15  FOG
PATUXENT       LGT RAIN  68  66  93 E14       30.07R
OCEAN CITY     CLOUDY    67  67 100 NE12      30.10R
WALLOPS ISLAND FOG       69  69 100 NE15      30.09S VSB 1
SALISBURY      CLOUDY    68  67  96 E8        30.10R FOG

$$
PAZ001-021-NYZ056-072-MDZ011-DCZ001-011100-
OTHER NEARBY LOCATIONS

CITY           SKY/WX    TMP DP  RH WIND       PRES   REMARKS
HARRISBURG     DRIZZLE   56  56 100 NE6       30.16R FOG
STATE COLLEGE  CLOUDY    54  54 100 NE6       30.17F
WILLIAMSPORT   CLOUDY    57  55  93 E5        30.17F
BINGHAMTON     FOG       49  49 100 E8        30.22S VSB 1/4
NEW YORK CITY  CLOUDY    57  53  86 VRB7G18   30.24R
BALTIMORE      LGT RAIN  61  60  97 E15       30.12R FOG
WASHINGTON DC  DRIZZLE   64  64 100 NE12      30.11R

$$



USA.gov is the U.S. government's official web portal to all federal, state and local government web resources and services.